Find Kosmos-2556

NORAD ID: 52713 Int'l Des: 2022-054 Owner: VVKOV Country: RU operational
LEOCIRCULARRETROGRADESSO

Live Position

Loading 3D Globe...

About Kosmos-2556

Description loading...

Upcoming Passes

Passes for default location (London). Set your location on the main map for personalized predictions.

Altitude History

Loading altitude history...

Two-Line Element Set

1 52713U 22054A 26104.48841167 .00001767 00000-0 72037-4 0 9997
2 52713 97.6239 52.8985 0001569 60.6317 299.5077 15.25834417217028
Epoch: Apr 14, 2026 • Age: 7 hours

Current Status

Altitude 491.9 km
Velocity 7.62 km/s
Sub-Earth Point 28.12°N, 114.12°E
Launch Date May 19, 2022
Age 3.9 years
Type other

Technical Details

Classification Payload
Mass 3700.00 kg
Dry Mass 3500.00 kg
Total Mass 3700.00 kg
Length 6.00 m
Diameter 2.70 m
Span 10.00 m
Shape Cyl + 2 Pan
Manufacturer ARSLO
Bus Type Bars
Phase Status In Orbit
Owner/State VVKOV/RU

Most Searched